BAW754 EGLL-LSGG

Flight info

Callsign BAW754
Flight time N/A
Altitude 35000
Route MODMI M185 MID UL612 VEULE DCT PEKIM DCT PILUL DCT PIMUP/N0434F270 DCT PIXIS DCT PIBAT/N0407F230 DCT LUSAR
Aircraft A320/M-SDE3FGHIRWY/LB1

Departure

Time 2026-05-05 17:52
Airport London Heathrow Airport (EGLL)

Arrival

Time N/A
Airport Geneva International Airport (LSGG)
Time Latitude Longitude Altitude Speed Heading
2026-05-05 17:34 51.46827 -0.48680 86 ft 0 kts 180°
2026-05-05 17:44 51.46830 -0.48680 86 ft 2 kts 180°
2026-05-05 17:44 51.46855 -0.48680 86 ft 2 kts 180°
2026-05-05 17:44 51.46873 -0.48684 86 ft 4 kts 120°
2026-05-05 17:45 51.46877 -0.48720 86 ft 4 kts 89°
2026-05-05 17:45 51.46876 -0.48736 86 ft 0 kts 89°
2026-05-05 17:48 51.46877 -0.48723 86 ft 2 kts 89°
2026-05-05 17:48 51.46877 -0.48692 86 ft 4 kts 89°
2026-05-05 17:48 51.46877 -0.48642 86 ft 5 kts 89°
2026-05-05 17:48 51.46878 -0.48574 86 ft 7 kts 89°
2026-05-05 17:49 51.46869 -0.48490 87 ft 8 kts 123°
2026-05-05 17:49 51.46811 -0.48467 88 ft 10 kts 175°
2026-05-05 17:49 51.46740 -0.48466 86 ft 11 kts 181°
2026-05-05 17:49 51.46659 -0.48468 86 ft 12 kts 180°
2026-05-05 17:50 51.46596 -0.48466 86 ft 5 kts 179°
2026-05-05 17:50 51.46588 -0.48466 86 ft 1 kts 180°
2026-05-05 17:50 51.46570 -0.48466 86 ft 4 kts 180°
2026-05-05 17:50 51.46528 -0.48466 86 ft 8 kts 180°
2026-05-05 17:51 51.46481 -0.48416 87 ft 10 kts 99°
2026-05-05 17:51 51.46481 -0.48224 89 ft 38 kts 90°
2026-05-05 17:51 51.46483 -0.47446 86 ft 100 kts 89°
2026-05-05 17:51 51.46489 -0.46074 86 ft 144 kts 90°
2026-05-05 17:52 51.46493 -0.44338 365 ft 157 kts 88°
2026-05-05 17:52 51.46500 -0.42567 914 ft 160 kts 89°
2026-05-05 17:52 51.46182 -0.40828 1396 ft 173 kts 119°
2026-05-05 17:52 51.45466 -0.39129 1628 ft 195 kts 122°
2026-05-05 17:53 51.44425 -0.37532 1815 ft 224 kts 150°
2026-05-05 17:53 51.42883 -0.36601 2139 ft 249 kts 160°
2026-05-05 17:53 51.41156 -0.35849 2720 ft 264 kts 173°
2026-05-05 17:53 51.39311 -0.36101 3508 ft 270 kts 197°
2026-05-05 17:54 51.37587 -0.37332 4349 ft 273 kts 207°
2026-05-05 17:54 51.35878 -0.38697 5196 ft 276 kts 207°
2026-05-05 17:54 51.34142 -0.40079 5795 ft 281 kts 207°
2026-05-05 17:54 51.32387 -0.41467 5968 ft 281 kts 206°
2026-05-05 17:55 51.30507 -0.42300 6040 ft 282 kts 185°
2026-05-05 17:55 51.28529 -0.42439 6724 ft 285 kts 181°
2026-05-05 17:55 51.26575 -0.42101 7501 ft 288 kts 169°
2026-05-05 17:55 51.24603 -0.41507 8307 ft 290 kts 169°
2026-05-05 17:56 51.22611 -0.40904 9079 ft 293 kts 169°
2026-05-05 17:56 51.20597 -0.40295 9845 ft 295 kts 169°
2026-05-05 17:56 51.18539 -0.39672 10274 ft 311 kts 169°
2026-05-05 17:56 51.16338 -0.39002 10428 ft 333 kts 169°
2026-05-05 17:57 51.13988 -0.38283 10585 ft 353 kts 169°
2026-05-05 17:57 51.11543 -0.37541 11055 ft 362 kts 169°
2026-05-05 17:57 51.09052 -0.36787 11616 ft 366 kts 169°
2026-05-05 17:57 51.06543 -0.36030 12250 ft 369 kts 168°
2026-05-05 17:58 51.04004 -0.35267 12871 ft 372 kts 168°
2026-05-05 17:58 51.01447 -0.34502 13522 ft 375 kts 168°
2026-05-05 17:58 50.98872 -0.33733 14133 ft 377 kts 168°
2026-05-05 17:58 50.96285 -0.32955 14674 ft 380 kts 168°
2026-05-05 17:59 50.93675 -0.32168 15211 ft 383 kts 168°
2026-05-05 17:59 50.91046 -0.31381 15745 ft 386 kts 168°
2026-05-05 17:59 50.88391 -0.30587 16246 ft 390 kts 168°
2026-05-05 17:59 50.85712 -0.29787 16787 ft 393 kts 168°
2026-05-05 18:00 50.83008 -0.28979 17309 ft 397 kts 168°
2026-05-05 18:00 50.80274 -0.28159 17871 ft 400 kts 168°
2026-05-05 18:00 50.77563 -0.27349 18381 ft 404 kts 168°
2026-05-05 18:00 50.74786 -0.26519 18901 ft 407 kts 169°
2026-05-05 18:01 50.72008 -0.25573 19397 ft 410 kts 163°
2026-05-05 18:01 50.69333 -0.23982 19884 ft 412 kts 153°
2026-05-05 18:01 50.66850 -0.21693 20370 ft 414 kts 145°
2026-05-05 18:01 50.64451 -0.19155 20854 ft 417 kts 145°
2026-05-05 18:02 50.62035 -0.16609 21291 ft 419 kts 145°
2026-05-05 18:02 50.59598 -0.14051 21718 ft 422 kts 145°
2026-05-05 18:02 50.57140 -0.11480 22137 ft 425 kts 146°
2026-05-05 18:02 50.54700 -0.08933 22541 ft 427 kts 146°
2026-05-05 18:03 50.52215 -0.06341 22946 ft 430 kts 146°
2026-05-05 18:03 50.49712 -0.03735 23339 ft 433 kts 146°
2026-05-05 18:03 50.47193 -0.01118 23688 ft 435 kts 146°
2026-05-05 18:03 50.44655 0.01514 24059 ft 436 kts 146°
2026-05-05 18:04 50.42125 0.04133 24442 ft 436 kts 146°
2026-05-05 18:04 50.39587 0.06756 24791 ft 437 kts 146°
2026-05-05 18:04 50.37045 0.09387 25130 ft 438 kts 146°
2026-05-05 18:04 50.34500 0.12019 25477 ft 439 kts 146°
2026-05-05 18:05 50.31974 0.14630 25825 ft 440 kts 146°
2026-05-05 18:05 50.29412 0.17275 26176 ft 441 kts 146°